Location: Unspecified
(40.7945°N, 0.0000°E)
Time: 06:57:30
(UTC+00:00)

Explorer 7 - Pass Details

Date: 24 January 2021
Orbit: 484 x 677 km, 50.3° (Epoch: 28 February)

Event Time Altitude Azimuth Distance (km) Brightness Sun altitude
Rises 04:26:05 0° 235° (SW) 2,541 - -32.2°
Reaches altitude 10° 04:28:13 10° 235° (SW) 1,673 - -31.8°
Maximum altitude 04:31:59 90° 222° (SW) 505 - -31.1°
Exits shadow 04:34:43 19° 56° (NE) 1,266 9.2 -30.6°
Drops below altitude 10° 04:35:56 10° 56° (ENE) 1,750 10.0 -30.4°
Sets 04:38:13 0° 57° (ENE) 2,671 11.1 -29.9°
